Location: 3 Angels Observatory
(30.5437°N, 88.5068°W)
Time: 07:10:44
(UTC-05:00)

Oscar 19 - Visible Passes

Search period start: 23 August 2017 00:00
Search period end: 02 September 2017 00:00
Orbit: 774 x 790 km, 98.6° (Epoch: 22 August)

Date Brightness Start Highest point End Pass type
(mag) Time Alt. Az. Time Alt. Az. Time Alt. Az.
23 Aug 13.1 03:18:23 10° NNW 03:18:59 13° NNW 03:18:59 13° NNW visible
24 Aug 13.3 02:45:57 10° N 02:46:41 14° N 02:46:41 14° N visible
25 Aug 13.6 02:14:05 10° NNE 02:14:22 12° NNE 02:14:22 12° NNE visible
26 Aug 13.2 03:22:20 10° NNW 03:22:37 11° NNW 03:22:37 11° NNW visible
27 Aug 13.3 02:49:49 10° N 02:50:18 13° N 02:50:18 13° N visible
28 Aug 13.6 02:17:54 10° NNE 02:18:00 10° NNE 02:18:00 10° NNE visible
30 Aug 13.4 02:53:43 10° N 02:53:55 11° N 02:53:55 11° N visible
